Regional Weather Roundup
Issued by NWS Kansas City/Pleasant Hill, MO

Home | Current Version | Previous Version | Text Only | Print | Product List | Glossary On
Versions: 1 2 3 4 5 6 7 8 9 10 11 12 13 14 15 16 17 18 19 20 21 22 23 24 25 26 27 28 29 30 31 32 33 34 35 36 37 38 39 40 41 42 43 44 45 46 47 48 49 50
035
ASUS43 KEAX 250410
RWREAX

WEATHER ROUNDUP FOR EASTERN KANSAS AND NORTHWEST MISSOURI
NATIONAL WEATHER SERVICE KANSAS CITY/PLEASANT HILL MO
1000 PM CST FRI NOV 24 2017

KSZ040-057-103>105-MOZ028-029-037-043-250500-
...KANSAS CITY METROPOLITAN AREA...

CITY           SKY/WX    TMP DP  RH WIND       PRES   REMARKS
K.C. INTL      MOCLDY    56  38  50 NW10      29.86R
K.C. DOWNTOWN  MOCLDY    61  37  41 N12       29.84R
LEES SUMMIT    CLOUDY    60  39  45 N14       29.84R
OLATHE - IXD   MOCLDY    59  40  49 N18       29.86R
OLATHE - OJC   PTCLDY    60  41  49 N16       29.85R
LAWRENCE       MOCLDY    60  39  45 NW14      29.87R

$$

MOZ001>008-011>017-020>025-030>033-038>040-044>046-053-054-250500-
...NORTHERN AND CENTRAL MISSOURI...

CITY           SKY/WX    TMP DP  RH WIND       PRES   REMARKS
ST. JOSEPH     PTCLDY    55  38  52 N17       29.88R
MOSBY          PTCLDY    57  36  44 NW7       29.85R
WARRENSBURG    CLOUDY    59  41  51 NW7       29.81R
WHITEMAN AFB   CLOUDY    58  41  53 NW6       29.77R
CLINTON        CLOUDY    59  41  51 MISG      29.81R
SEDALIA        MOCLDY    59  44  57 NW7       29.80S
WARSAW         NOT AVBL
CHILLICOTHE      N/A     56  40  55 NW7       29.83R
KIRKSVILLE     PTCLDY    56  43  61 NW10G20   29.79R

$$

MOZ041-047>049-056>058-063>065-088>090-097-250500-
...EASTERN AND SOUTHERN MISSOURI...

CITY           SKY/WX    TMP DP  RH WIND       PRES   REMARKS
ST. LOUIS INTL CLOUDY    64  36  35 SW12      29.70R
SPIRIT OF STL  MOCLDY    62  38  40 W8        29.71R
COLUMBIA       CLOUDY    61  41  47 NW9       29.77R
JEFFERSON CITY MOCLDY    62  41  46 NW6       29.77R
ROLLA          MOCLDY    63  36  36 W13       29.79R
OSAGE BEACH    MOCLDY    65  39  38 W5        29.80R
SPRINGFIELD    CLOUDY    64  35  34 NW15G21   29.84R
BRANSON        CLOUDY    63  36  36 CALM      29.82R
JOPLIN         CLOUDY    63  38  39 MISG      29.86R
WEST PLAINS    CLOUDY    58  35  42 SW7       29.83R

$$

IAZ060-094-KSZ022-034>040-054-083-096-NEZ052-066-093-250500-
...KANSAS...SOUTHEAST NEBRASKA AND IOWA...

CITY           SKY/WX    TMP DP  RH WIND       PRES   REMARKS
TOPEKA         CLOUDY    59  39  47 NW14      29.89R
MANHATTAN      CLOUDY    58  35  42 N7        29.93R
EMPORIA        CLOUDY    61  39  44 N10       29.90R
CHANUTE        PTCLDY    60  41  49 N3        29.87R
WICHITA        CLOUDY    62  41  46 N12       29.91R
OMAHA          CLEAR     43  34  70 NE3       29.91R
LINCOLN        CLEAR     49  34  56 NW3       29.96R
FALLS CITY     CLEAR     51  37  58 NW10      29.91R
LAMONI         CLEAR     51  39  63 N10G21    29.85R
DES MOINES     CLEAR     50  37  61 NW15G22   29.83R

$$





USA.gov is the U.S. government's official web portal to all federal, state and local government web resources and services.